Detroit, MI

7:02 PM EDT on August 28, 2016 (GMT -0400)
Detroit City

Weather History for KDET - February, 2013

Change the Weather History Date:

Friday, February 22, 2013

  Actual Average Record
Temperature  
Mean Temperature 28 °F -  
Max Temperature 34 °F 40 °F 59 °F (1988)
Min Temperature 21 °F 25 °F -1 °F (1963)
Degree Days  
Heating Degree Days 38    
Moisture  
Dew Point 25 °F    
Average Humidity 90    
Maximum Humidity 100    
Minimum Humidity 74    
Precipitation  
Precipitation 0.09 in - - ()
Sea Level Pressure  
Sea Level Pressure 30.01 in    
Wind  
Wind Speed 11 mph (SE)    
Max Wind Speed 17 mph    
Max Gust Speed 26 mph    
Visibility 4 miles    
Events Fog , Snow    
Averages and records for this station are not official NWS values.
T = Trace of Precipitation, MM = Missing Value Source: NWS Daily Summary

Daily Weather History Graph

Daily Weather History Graph

Search for Another Location

Airport or City:

Trip Planner

Search our weather history database for the weather conditions in past years. The results will help you decide how hot, cold, wet, or windy it might be!

Date:

Astronomy

Feb. 22, 2013 Rise Set
Actual Time 7:18 AM EST 6:13 PM EST
Civil Twilight 6:49 AM EST 6:42 PM EST
Nautical Twilight 6:16 AM EST 7:14 PM EST
Astronomical Twilight 5:44 AM EST 7:47 PM EST
Moon 3:21 PM EST (2/22) 5:05 AM EST (2/22)
Length of Visible Light 11h 52m
Length of Day
10h 55m
Waxing Gibbous, 90% of the Moon is Illuminated
Feb 22
Waxing Gibbous
Feb 25
Full
Mar 4
Last Quarter
Mar 11
New
Mar 19
First Quarter

Hourly Weather History & Observations

Time (EST) Temp. Windchill Dew Point Humidity Pressure Visibility Wind Dir Wind Speed Gust Speed Precip Events Conditions
12:38 AM 21.2 °F 11.7 °F 17.6 °F 86% 30.27 in 10.0 mi East 8.1 mph - N/A   Overcast
12:53 AM 21.9 °F 11.7 °F 17.1 °F 82% 30.29 in 10.0 mi East 9.2 mph - N/A   Overcast
1:53 AM 21.9 °F 10.4 °F 17.1 °F 82% 30.29 in 10.0 mi East 11.5 mph - N/A   Overcast
2:42 AM 21.2 °F 8.9 °F 17.6 °F 86% 30.24 in 10.0 mi East 12.7 mph - N/A   Mostly Cloudy
2:53 AM 21.9 °F 9.8 °F 18.0 °F 85% 30.27 in 10.0 mi East 12.7 mph - N/A   Scattered Clouds
3:53 AM 21.9 °F 9.8 °F 18.0 °F 85% 30.21 in 10.0 mi East 12.7 mph 20.7 mph N/A   Scattered Clouds
4:53 AM 24.1 °F 11.5 °F 18.0 °F 77% 30.14 in 10.0 mi East 15.0 mph 26.5 mph N/A   Overcast
5:14 AM 24.8 °F 12.9 °F 17.6 °F 74% 30.11 in 10.0 mi ESE 13.8 mph 25.3 mph N/A   Overcast
5:53 AM 24.1 °F 11.5 °F 19.0 °F 81% 30.13 in 10.0 mi East 15.0 mph 25.3 mph N/A   Overcast
6:53 AM 25.0 °F 13.6 °F 19.9 °F 81% 30.11 in 10.0 mi East 12.7 mph 20.7 mph N/A   Overcast
7:27 AM 24.8 °F 12.9 °F 21.2 °F 86% 30.06 in 1.5 mi ESE 13.8 mph 23.0 mph 0.00 in Snow Light Snow
7:36 AM 24.8 °F 12.9 °F 21.2 °F 86% 30.06 in 0.8 mi East 13.8 mph - 0.00 in Snow Light Snow
7:43 AM 24.8 °F 11.9 °F 21.2 °F 86% 30.06 in 0.5 mi East 16.1 mph 21.9 mph 0.01 in Fog , Snow Snow
7:53 AM 24.1 °F 11.0 °F 21.0 °F 88% 30.09 in 0.5 mi East 16.1 mph 23.0 mph 0.02 in Fog , Snow Snow
8:32 AM 24.8 °F 11.9 °F 21.2 °F 86% 30.02 in 0.2 mi East 16.1 mph 26.5 mph 0.03 in Fog , Snow Snow
8:49 AM 24.8 °F 12.4 °F 21.2 °F 86% 30.02 in 0.5 mi East 15.0 mph 21.9 mph 0.04 in Fog , Snow Snow
8:53 AM 24.1 °F 11.5 °F 21.9 °F 91% 30.05 in 0.2 mi East 15.0 mph 21.9 mph 0.04 in Fog , Snow Snow
9:07 AM 24.8 °F 14.0 °F 23.0 °F 93% 30.01 in 0.5 mi East 11.5 mph 19.6 mph 0.01 in Fog , Snow Light Snow
9:33 AM 24.8 °F 13.4 °F 23.0 °F 93% 30.00 in 0.8 mi East 12.7 mph 25.3 mph 0.01 in Snow Light Snow
9:53 AM 25.0 °F 12.2 °F 23.0 °F 92% 30.03 in 0.5 mi ESE 16.1 mph 23.0 mph 0.02 in Fog , Snow Snow
10:07 AM 24.8 °F 12.9 °F 23.0 °F 93% 30.00 in 0.8 mi ESE 13.8 mph - 0.00 in Snow Light Snow
10:26 AM 24.8 °F 14.0 °F 24.8 °F 100% 29.99 in 0.5 mi ESE 11.5 mph - 0.01 in Fog , Snow Snow
10:40 AM 26.6 °F 13.8 °F 24.8 °F 93% 29.98 in 1.0 mi ESE 17.3 mph - 0.01 in Snow Light Snow
10:53 AM 26.1 °F 14.0 °F 24.1 °F 92% 30.01 in 1.2 mi ESE 15.0 mph 21.9 mph 0.01 in Snow Light Snow
11:04 AM 26.6 °F 14.7 °F 24.8 °F 93% 29.96 in 2.0 mi ESE 15.0 mph - 0.00 in Snow Light Snow
11:53 AM 28.0 °F 16.1 °F 25.0 °F 88% 29.97 in 5.0 mi ESE 16.1 mph 20.7 mph 0.00 in   Overcast
12:53 PM 28.0 °F 18.1 °F 26.1 °F 92% 29.97 in 6.0 mi ESE 11.5 mph - N/A   Overcast
1:18 PM 28.4 °F 19.1 °F 26.6 °F 93% 29.92 in 2.0 mi SE 10.4 mph - N/A   Overcast
1:53 PM 30.0 °F 21.1 °F 28.0 °F 92% 29.93 in 2.5 mi SE 10.4 mph - N/A   Overcast
2:06 PM 30.2 °F 22.6 °F 28.4 °F 93% 29.90 in 3.0 mi SE 8.1 mph - N/A   Overcast
2:38 PM 30.2 °F 24.3 °F 30.2 °F 100% 29.90 in 2.5 mi SSE 5.8 mph - N/A   Overcast
2:53 PM 30.0 °F 23.2 °F 30.0 °F 100% 29.93 in 2.5 mi SSE 6.9 mph - N/A   Overcast
3:42 PM 30.2 °F 25.4 °F 30.2 °F 100% 29.90 in 1.8 mi SSE 4.6 mph - N/A   Overcast
3:51 PM 30.2 °F 24.3 °F 30.2 °F 100% 29.90 in 2.0 mi Variable 5.8 mph - N/A   Overcast
3:53 PM 30.9 °F 26.2 °F 30.9 °F 100% 29.93 in 2.0 mi South 4.6 mph - N/A   Overcast
4:27 PM 30.2 °F 24.3 °F 30.2 °F 100% 29.89 in 1.8 mi SE 5.8 mph - N/A   Overcast
4:53 PM 32.0 °F 27.5 °F 30.9 °F 96% 29.92 in 1.2 mi SSE 4.6 mph - N/A   Overcast
5:27 PM 32.0 °F 26.4 °F 30.2 °F 93% 29.89 in 0.8 mi SSE 5.8 mph - N/A   Overcast
5:53 PM 32.0 °F 27.5 °F 30.9 °F 96% 29.92 in 0.5 mi South 4.6 mph - N/A Fog Fog
6:53 PM 32.0 °F 26.4 °F 30.9 °F 96% 29.93 in 0.8 mi South 5.8 mph - N/A   Overcast
7:26 PM 33.8 °F 29.6 °F 30.2 °F 87% 29.91 in 1.0 mi SSW 4.6 mph - N/A   Overcast
7:44 PM 33.8 °F 26.4 °F 30.2 °F 87% 29.91 in 3.0 mi SSW 9.2 mph - N/A   Overcast
7:53 PM 33.1 °F 25.5 °F 30.0 °F 89% 29.93 in 4.0 mi SSW 9.2 mph - N/A   Overcast
8:31 PM 33.8 °F 27.7 °F 30.2 °F 87% 29.90 in 4.0 mi SW 6.9 mph - N/A   Overcast
8:53 PM 34.0 °F 26.6 °F 30.0 °F 85% 29.92 in 6.0 mi SSW 9.2 mph - N/A   Overcast
9:10 PM 33.8 °F 25.8 °F 30.2 °F 87% 29.90 in 7.0 mi SW 10.4 mph - N/A   Overcast
9:53 PM 34.0 °F 25.5 °F 30.9 °F 89% 29.93 in 8.0 mi SW 11.5 mph 19.6 mph N/A   Overcast
10:53 PM 34.0 °F 25.5 °F 30.9 °F 89% 29.92 in 9.0 mi SSW 11.5 mph - N/A   Overcast
11:30 PM 33.8 °F 25.3 °F 30.2 °F 87% 29.90 in 9.0 mi SSW 11.5 mph - N/A   Overcast
11:53 PM 34.0 °F 25.0 °F 30.0 °F 85% 29.92 in 10.0 mi SW 12.7 mph - N/A   Overcast